TimeMDT,TemperatureF,Dew PointF,Humidity,Sea Level PressureIn,VisibilityMPH,Wind Direction,Wind SpeedMPH,Gust SpeedMPH,PrecipitationIn,Events,Conditions,WindDirDegrees,DateUTC
12:51 AM,37.0,28.9,73,30.11,10.0,NNE,8.1,-,N/A,,Mostly Cloudy,20,2012-10-11 06:51:00
1:51 AM,37.0,28.9,73,30.13,10.0,North,5.8,-,N/A,,Overcast,10,2012-10-11 07:51:00
2:23 AM,37.4,28.4,70,30.15,10.0,North,8.1,-,N/A,,Overcast,360,2012-10-11 08:23:00
2:51 AM,37.0,28.9,73,30.15,10.0,North,8.1,-,N/A,,Overcast,10,2012-10-11 08:51:00
3:44 AM,37.4,30.2,75,30.16,10.0,North,6.9,-,N/A,,Overcast,350,2012-10-11 09:44:00
3:51 AM,37.0,30.0,76,30.17,10.0,North,5.8,-,N/A,,Overcast,360,2012-10-11 09:51:00
4:09 AM,37.4,30.2,75,30.17,10.0,North,8.1,-,0.00,,Overcast,350,2012-10-11 10:09:00
4:51 AM,36.0,30.0,79,30.20,9.0,North,4.6,-,0.00,Snow,Light Snow,10,2012-10-11 10:51:00
5:14 AM,33.8,30.2,87,30.20,8.0,NNE,10.4,16.1,0.00,Snow,Light Snow,20,2012-10-11 11:14:00
5:24 AM,33.8,30.2,87,30.20,9.0,NNE,13.8,-,0.00,,Overcast,20,2012-10-11 11:24:00
5:51 AM,33.1,28.9,85,30.24,3.0,NNE,8.1,-,0.01,Snow,Light Snow,20,2012-10-11 11:51:00
5:54 AM,33.8,28.4,81,30.21,2.5,NNE,8.1,-,0.00,Snow,Light Snow,20,2012-10-11 11:54:00
6:02 AM,32.0,28.4,87,30.22,1.2,NNE,8.1,-,0.01,Snow,Light Snow,20,2012-10-11 12:02:00
6:24 AM,32.0,28.4,87,30.23,2.5,NNE,6.9,-,0.02,Snow,Light Snow,20,2012-10-11 12:24:00
6:27 AM,32.0,28.4,87,30.23,3.0,North,6.9,-,0.02,Snow,Light Snow,10,2012-10-11 12:27:00
6:43 AM,32.0,28.4,87,30.24,9.0,NNE,6.9,-,0.02,Snow,Light Snow,20,2012-10-11 12:43:00
6:51 AM,32.0,28.0,85,30.29,7.0,NNE,9.2,-,0.02,Snow,Light Snow,20,2012-10-11 12:51:00
7:51 AM,32.0,27.0,82,30.31,10.0,NNE,3.5,-,0.00,,Overcast,20,2012-10-11 13:51:00
8:51 AM,32.0,26.1,79,30.34,10.0,NNE,8.1,-,N/A,,Overcast,20,2012-10-11 14:51:00
9:51 AM,33.1,26.1,75,30.37,10.0,NE,5.8,-,N/A,,Overcast,50,2012-10-11 15:51:00
10:30 AM,33.8,26.6,75,30.32,10.0,ENE,4.6,-,N/A,,Overcast,60,2012-10-11 16:30:00
10:51 AM,34.0,27.0,75,30.38,10.0,East,5.8,-,N/A,,Overcast,80,2012-10-11 16:51:00
11:51 AM,35.1,26.1,70,30.39,10.0,East,4.6,-,N/A,,Overcast,90,2012-10-11 17:51:00
12:51 PM,36.0,26.1,67,30.37,10.0,ESE,3.5,-,N/A,,Overcast,120,2012-10-11 18:51:00
1:51 PM,37.0,27.0,67,30.35,10.0,ESE,4.6,-,N/A,,Overcast,120,2012-10-11 19:51:00
1:57 PM,37.4,26.6,65,30.29,10.0,SE,5.8,-,N/A,,Overcast,130,2012-10-11 19:57:00
2:51 PM,37.9,27.0,65,30.33,10.0,SSE,4.6,-,N/A,,Overcast,150,2012-10-11 20:51:00
4:44 PM,37.4,28.4,70,30.26,10.0,SE,9.2,-,N/A,,Overcast,140,2012-10-11 22:44:00
4:51 PM,37.9,28.0,68,30.32,10.0,ESE,9.2,-,N/A,,Overcast,120,2012-10-11 22:51:00
4:59 PM,37.4,28.4,70,30.26,10.0,SE,9.2,-,N/A,,Overcast,130,2012-10-11 22:59:00
5:04 PM,37.4,28.4,70,30.25,10.0,SE,8.1,-,N/A,,Overcast,140,2012-10-11 23:04:00
5:51 PM,37.9,28.0,68,30.32,10.0,SE,10.4,-,N/A,,Overcast,130,2012-10-11 23:51:00
6:01 PM,37.4,28.4,70,30.25,10.0,SE,9.2,-,N/A,,Overcast,130,2012-10-12 00:01:00
8:51 PM,37.0,27.0,67,30.29,10.0,SE,11.5,-,N/A,,Overcast,140,2012-10-12 02:51:00
10:51 PM,37.0,28.9,73,30.24,10.0,SE,20.7,25.3,N/A,,Overcast,140,2012-10-12 04:51:00
11:51 PM,35.1,28.9,78,30.22,10.0,SSE,20.7,-,N/A,,Clear,150,2012-10-12 05:51:00